When you browse on this site, cookies collect data to enhance your experience and personalize the content and advertising you see.
Visit our Privacy Policy to learn more. By continuing to use the site, you agree to this use of cookies and data.

Previsão horária em Veszprém

Hoje, 8 Julho, Quarta-feira

Tempo Temperatura Precipitação Vento Pressão Humidade
00:00 +13°C° 0 mm 1 m/s 741 mmHg 72%
01:00 +12°C° 0 mm 1 m/s 742 mmHg 71%
02:00 +12°C° 0 mm 1 m/s 741 mmHg 71%
03:00 +12°C° 0 mm 1 m/s 741 mmHg 71%
04:00 +12°C° 0 mm 1 m/s 741 mmHg 72%
05:00 +14°C° 0 mm 1 m/s 742 mmHg 67%
06:00 +16°C° 0 mm 1 m/s 742 mmHg 63%
07:00 +18°C° 0 mm 1 m/s 742 mmHg 59%
08:00 +20°C° 0 mm 1 m/s 742 mmHg 55%
09:00 +21°C° 0 mm 1 m/s 742 mmHg 52%
10:00 +23°C° 0 mm 2 m/s 742 mmHg 49%
11:00 +23°C° 0 mm 2 m/s 742 mmHg 48%
12:00 +24°C° 0 mm 2 m/s 741 mmHg 46%
13:00 +25°C° 0 mm 2 m/s 741 mmHg 45%
14:00 +25°C° 0 mm 2 m/s 741 mmHg 45%
15:00 +25°C° 0 mm 2 m/s 740 mmHg 45%
16:00 +25°C° 0 mm 2 m/s 740 mmHg 46%
17:00 +24°C° 0 mm 2 m/s 740 mmHg 52%
18:00 +21°C° 0 mm 2 m/s 740 mmHg 58%
19:00 +20°C° 0 mm 2 m/s 740 mmHg 65%
20:00 +19°C° 0 mm 2 m/s 740 mmHg 64%
21:00 +19°C° 0 mm 2 m/s 740 mmHg 63%
22:00 +18°C° 0 mm 2 m/s 741 mmHg 61%
23:00 +18°C° 0 mm 2 m/s 741 mmHg 63%

Amanhã, 9 Julho, Quinta-feira

Tempo Temperatura Precipitação Vento Pressão Humidade
00:00 +17°C° 0 mm 2 m/s 741 mmHg 65%
01:00 +17°C° 0 mm 2 m/s 741 mmHg 67%
02:00 +16°C° 0 mm 1 m/s 741 mmHg 70%
03:00 +16°C° 0 mm 1 m/s 741 mmHg 73%
04:00 +15°C° 0 mm 1 m/s 741 mmHg 77%
05:00 +18°C° 0 mm 1 m/s 741 mmHg 74%
06:00 +19°C° 0 mm 1 m/s 742 mmHg 72%
07:00 +20°C° 0 mm 1 m/s 742 mmHg 70%
08:00 +22°C° 0 mm 1 m/s 742 mmHg 65%
09:00 +24°C° 0 mm 1 m/s 742 mmHg 59%
10:00 +25°C° 0 mm 1 m/s 743 mmHg 54%
11:00 +26°C° 0 mm 1 m/s 742 mmHg 51%
12:00 +27°C° 0 mm 1 m/s 742 mmHg 48%
13:00 +28°C° 0 mm 2 m/s 742 mmHg 44%
14:00 +28°C° 0 mm 2 m/s 741 mmHg 44%
15:00 +28°C° 0 mm 2 m/s 741 mmHg 45%
16:00 +28°C° 0 mm 2 m/s 741 mmHg 45%
17:00 +27°C° 0 mm 2 m/s 740 mmHg 52%
18:00 +25°C° 0 mm 2 m/s 740 mmHg 59%
19:00 +24°C° 0 mm 2 m/s 740 mmHg 66%
20:00 +23°C° 0 mm 2 m/s 740 mmHg 68%
21:00 +21°C° 0 mm 2 m/s 740 mmHg 70%
22:00 +21°C° 0 mm 2 m/s 740 mmHg 71%
23:00 +20°C° 0 mm 2 m/s 740 mmHg 73%

Depois de amanhã, 10 Julho, Sexta-feira

Tempo Temperatura Precipitação Vento Pressão Humidade
00:00 +19°C° 0 mm 2 m/s 740 mmHg 75%
01:00 +19°C° 0 mm 2 m/s 740 mmHg 77%
02:00 +18°C° 0 mm 2 m/s 740 mmHg 79%
03:00 +19°C° 0 mm 1 m/s 740 mmHg 81%
04:00 +18°C° 0 mm 1 m/s 740 mmHg 82%
05:00 +20°C° 0 mm 1 m/s 740 mmHg 78%
06:00 +20°C° 0 mm 2 m/s 740 mmHg 74%
07:00 +23°C° 0 mm 2 m/s 740 mmHg 69%
08:00 +24°C° 0 mm 3 m/s 740 mmHg 65%
09:00 +26°C° 0 mm 3 m/s 740 mmHg 60%
10:00 +27°C° 0 mm 4 m/s 740 mmHg 55%
11:00 +28°C° 0 mm 4 m/s 740 mmHg 53%
12:00 +29°C° 0 mm 4 m/s 739 mmHg 51%
13:00 +30°C° 0 mm 4 m/s 739 mmHg 48%
14:00 +30°C° 0 mm 4 m/s 739 mmHg 48%
15:00 +32°C° 0 mm 4 m/s 738 mmHg 47%
16:00 +32°C° 0 mm 4 m/s 738 mmHg 47%
17:00 +29°C° 0 mm 4 m/s 738 mmHg 54%
18:00 +28°C° 0 mm 4 m/s 737 mmHg 60%
19:00 +26°C° 0 mm 4 m/s 737 mmHg 67%
20:00 +25°C° 0 mm 3 m/s 737 mmHg 70%
21:00 +24°C° 0 mm 3 m/s 737 mmHg 74%
22:00 +22°C° 0 mm 3 m/s 737 mmHg 77%
23:00 +21°C° 0 mm 2 m/s 737 mmHg 79%

11 Julho, Sábado

Tempo Temperatura Precipitação Vento Pressão Humidade
00:00 +21°C° 0 mm 2 m/s 737 mmHg 81%
01:00 +21°C° 0 mm 1 m/s 738 mmHg 83%
02:00 +20°C° 0 mm 2 m/s 738 mmHg 83%
03:00 +19°C° 0 mm 3 m/s 738 mmHg 83%
04:00 +19°C° 0 mm 3 m/s 738 mmHg 83%
05:00 +20°C° 0 mm 3 m/s 738 mmHg 80%
06:00 +21°C° 0 mm 3 m/s 738 mmHg 78%
07:00 +22°C° 0 mm 3 m/s 738 mmHg 76%
08:00 +24°C° 0 mm 3 m/s 738 mmHg 72%
09:00 +26°C° 0 mm 3 m/s 738 mmHg 68%
10:00 +27°C° 0 mm 3 m/s 738 mmHg 65%
11:00 +28°C° 0.1 mm 2 m/s 738 mmHg 63%
12:00 +28°C° 0.1 mm 2 m/s 738 mmHg 61%
13:00 +29°C° 0.1 mm 2 m/s 738 mmHg 59%
14:00 +26°C° 0.9 mm 5 m/s 738 mmHg 68%
15:00 +21°C° 0.9 mm 8 m/s 738 mmHg 77%
16:00 +17°C° 0.9 mm 11 m/s 738 mmHg 86%
17:00 +17°C° 0.3 mm 11 m/s 739 mmHg 87%
18:00 +16°C° 0.3 mm 10 m/s 739 mmHg 87%
19:00 +14°C° 0.3 mm 10 m/s 740 mmHg 88%
20:00 +15°C° 0.1 mm 9 m/s 741 mmHg 87%
21:00 +15°C° 0.1 mm 8 m/s 741 mmHg 86%
22:00 +15°C° 0.1 mm 7 m/s 742 mmHg 85%
23:00 +14°C° 0 mm 7 m/s 742 mmHg 84%

12 Julho, Domingo

Tempo Temperatura Precipitação Vento Pressão Humidade
00:00 +14°C° 0 mm 7 m/s 742 mmHg 83%
01:00 +14°C° 0 mm 7 m/s 743 mmHg 81%
02:00 +13°C° 0 mm 6 m/s 743 mmHg 82%
03:00 +13°C° 0 mm 6 m/s 743 mmHg 83%
04:00 +11°C° 0 mm 6 m/s 743 mmHg 83%
05:00 +13°C° 0 mm 6 m/s 743 mmHg 78%
06:00 +14°C° 0 mm 7 m/s 744 mmHg 72%
07:00 +15°C° 0 mm 7 m/s 744 mmHg 66%
08:00 +16°C° 0 mm 7 m/s 744 mmHg 61%
09:00 +18°C° 0 mm 7 m/s 745 mmHg 56%
10:00 +20°C° 0 mm 6 m/s 745 mmHg 51%
11:00 +21°C° 0 mm 6 m/s 745 mmHg 50%
12:00 +22°C° 0 mm 6 m/s 744 mmHg 49%
13:00 +23°C° 0 mm 5 m/s 744 mmHg 47%
14:00 +23°C° 0 mm 5 m/s 744 mmHg 48%
15:00 +23°C° 0 mm 5 m/s 744 mmHg 48%
16:00 +23°C° 0 mm 4 m/s 744 mmHg 49%
17:00 +21°C° 0 mm 4 m/s 744 mmHg 55%
18:00 +20°C° 0 mm 3 m/s 744 mmHg 60%
19:00 +19°C° 0 mm 3 m/s 744 mmHg 66%
20:00 +18°C° 0 mm 3 m/s 744 mmHg 69%
21:00 +16°C° 0 mm 3 m/s 744 mmHg 72%
22:00 +14°C° 0 mm 3 m/s 744 mmHg 75%
23:00 +14°C° 0 mm 3 m/s 744 mmHg 76%

13 Julho, Segunda-feira

Tempo Temperatura Precipitação Vento Pressão Humidade
00:00 +14°C° 0 mm 2 m/s 744 mmHg 77%
01:00 +13°C° 0 mm 2 m/s 744 mmHg 78%
02:00 +13°C° 0 mm 2 m/s 744 mmHg 80%
03:00 +12°C° 0 mm 2 m/s 744 mmHg 81%
04:00 +12°C° 0 mm 2 m/s 744 mmHg 82%
05:00 +14°C° 0 mm 2 m/s 744 mmHg 76%
06:00 +15°C° 0 mm 2 m/s 744 mmHg 71%
07:00 +17°C° 0 mm 2 m/s 744 mmHg 65%
08:00 +18°C° 0 mm 2 m/s 744 mmHg 60%
09:00 +19°C° 0 mm 2 m/s 744 mmHg 55%
10:00 +21°C° 0 mm 2 m/s 744 mmHg 50%
11:00 +23°C° 0 mm 2 m/s 744 mmHg 47%
12:00 +24°C° 0 mm 1 m/s 744 mmHg 43%
13:00 +25°C° 0 mm 1 m/s 743 mmHg 40%
14:00 +25°C° 0 mm 1 m/s 743 mmHg 40%
15:00 +25°C° 0 mm 1 m/s 743 mmHg 40%
16:00 +25°C° 0 mm 1 m/s 742 mmHg 40%
17:00 +23°C° 0 mm 1 m/s 742 mmHg 47%
18:00 +22°C° 0 mm 1 m/s 742 mmHg 53%
19:00 +20°C° 0 mm 1 m/s 741 mmHg 59%
20:00 +19°C° 0 mm 1 m/s 742 mmHg 62%
21:00 +18°C° 0 mm 1 m/s 742 mmHg 66%
22:00 +16°C° 0 mm 2 m/s 742 mmHg 69%
23:00 +15°C° 0 mm 2 m/s 742 mmHg 72%
Mostrar mais